MEV-1

Last updated on Fri Jun 19 2026 17:09:34 GMT+0000 (Coordinated Universal Time)

1 44625U 19067B 26167.92963140 -.00000149 00000+0 00000+0 0 9993 2 44625 0.8740 268.9828 0002794 179.8034 307.2103 1.00269616 61744
UTC large
Height (km)
Speed (km/s)
/
Latitude / Longitude
Inclination (degrees)
Orbital Period (minutes)
Azimuth
Elevation
Range (km)
Doppler Factor

Next 0 passes for location: London (51.5072 / 0.1276)

No passes found over London.
MEV-1